This is the latest recevied weather packets stored in our database for station/object N3WPH. If no packets are shown the sender has not sent any weather packets the latest 1 day(s).
| Time | Temp. | Humidity | Pressure | Rain* | Wind** | Luminosity | Snow |
|---|---|---|---|---|---|---|---|
| 1778046686 | 18.33° C | 53% | 1008.3 hPa | 0 mm | - | 0 W/m² | - |
| 1778046383 | 18.33° C | 53% | 1008.1 hPa | 0 mm | - | 0 W/m² | - |
| 1778046079 | 18.89° C | 51% | 1008.2 hPa | 0 mm | - | 0 W/m² | - |
| 1778045777 | 18.89° C | 49% | 1008.3 hPa | 0 mm | - | 0 W/m² | - |
| 1778045173 | 19.44° C | 47% | 1008.5 hPa | 0 mm | - | 0 W/m² | - |
| 1778044871 | 19.44° C | 48% | 1008.7 hPa | 0 mm | - | 0 W/m² | - |
| 1778044264 | 19.44° C | 47% | 1008.7 hPa | 0 mm | - | 0 W/m² | - |
| 1778043659 | 20° C | 46% | 1008.7 hPa | 0 mm | - | 0 W/m² | - |
| 1778043052 | 20° C | 47% | 1008.5 hPa | 0 mm | - | 0 W/m² | - |
| 1778041842 | 20° C | 45% | 1008.6 hPa | 0 mm | - | 0 W/m² | - |
| 1778041541 | 20° C | 47% | 1008.8 hPa | 0 mm | - | 0 W/m² | - |
| 1778040937 | 20° C | 47% | 1009 hPa | 0 mm | - | 0 W/m² | - |
| 1778040331 | 20° C | 47% | 1008.6 hPa | 0 mm | - | 0 W/m² | - |
| 1778040027 | 20° C | 48% | 1008.8 hPa | 0 mm | - | 0 W/m² | - |
| 1778039724 | 20.56° C | 46% | 1008.9 hPa | 0 mm | - | 0 W/m² | - |
| 1778039421 | 20.56° C | 45% | 1008.7 hPa | 0 mm | - | 0 W/m² | - |
| 1778038815 | 21.11° C | 44% | 1008.7 hPa | 0 mm | - | 0 W/m² | - |
| 1778037907 | 21.11° C | 45% | 1008.9 hPa | 0 mm | - | 0 W/m² | - |
| 1778037603 | 21.11° C | 44% | 1008.8 hPa | 0 mm | - | 0 W/m² | - |
| 1778037301 | 21.67° C | 45% | 1008.7 hPa | 0 mm | - | 0 W/m² | - |
| 1778036998 | 21.67° C | 44% | 1008.7 hPa | 0 mm | - | 0 W/m² | - |
| 1778036392 | 21.67° C | 45% | 1008.7 hPa | 0 mm | - | 0 W/m² | - |
| 1778036089 | 21.67° C | 45% | 1008.7 hPa | 0 mm | - | 0 W/m² | - |
| 1778035786 | 21.11° C | 45% | 1008.8 hPa | 0 mm | - | 0 W/m² | - |
| 1778035483 | 20.56° C | 47% | 1008.7 hPa | 0 mm | - | 0 W/m² | - |
* Rain latest hour (hover to see other rain measurements)
** Current wind speed in m/s (hover to see current wind gust speed)